Regional Weather Roundup
Issued by NWS

Home | Current Version | Previous Version | Text Only | Print | Product List | Glossary Off
Versions: 1 2 3 4 5 6 7 8 9 10 11 12 13 14 15 16 17 18 19 20 21 22 23 24 25 26 27 28 29 30 31 32 33 34 35 36 37 38 39 40 41 42 43 44 45 46 47 48 49 50

000
ASUS43 KBIS 300710
RWRND

NORTH DAKOTA REGIONAL WEATHER ROUNDUP
NATIONAL WEATHER SERVICE BISMARCK ND
200 AM CDT SUN APR 30 2017

NOTE: "FAIR" INDICATES FEW OR NO CLOUDS BELOW 12,000 FEET WITH NO
SIGNIFICANT WEATHER AND/OR OBSTRUCTIONS TO VISIBILITY.


NDZ001>003-009>011-017-300800-
NORTHWEST NORTH DAKOTA

CITY           SKY/WX    TMP DP  RH WIND       PRES   REMARKS
WILLISTON      FAIR      40  33  76 S3        30.09F
MINOT          FAIR      49  21  33 S15       30.12S
MINOT AFB      CLEAR     44  26  49 S13       30.10F
$$

NDZ018>021-031>035-040>046-300800-
SOUTHWEST NORTH DAKOTA

CITY           SKY/WX    TMP DP  RH WIND       PRES   REMARKS
BISMARCK       FAIR      36  25  64 SE7       30.18S
DICKINSON      FAIR      31  19  61 S8        30.12F
GARRISON         N/A     37  23  56 SW5       30.14S
HETTINGER ARPT CLEAR     33  21  61 SE3       30.16F
$$

NDZ004>008-012>016-024-026-027-054-300800-
NORTHEAST NORTH DAKOTA

CITY           SKY/WX    TMP DP  RH WIND       PRES   REMARKS
GRAND FORKS    CLOUDY    42  33  70 S5        30.19
GRND FRKS AFB  CLOUDY    39  32  74 S7        30.19S
DEVILS LAKE    FAIR      45  28  51 S9        30.18S
$$

NDZ022-023-025-028>030-036>039-047>053-300800-
SOUTHEAST NORTH DAKOTA

CITY           SKY/WX    TMP DP  RH WIND       PRES   REMARKS
FARGO          PTCLDY    39  29  67 CALM      30.19S
JAMESTOWN      FAIR      41  29  62 S5        30.18F
$$




USA.gov is the U.S. government's official web portal to all federal, state and local government web resources and services.